Change the Weather History Date:

Friday, October 5, 2012

  Actual Average Record
Temperature  
Mean Temperature 57 °F -  
Max Temperature 70 °F 67 °F 86 °F (1997)
Min Temperature 44 °F 44 °F 32 °F (2004)
Degree Days  
Heating Degree Days 8    
Growing Degree Days 7 (Base 50)    
Moisture  
Dew Point 46 °F    
Average Humidity 76    
Maximum Humidity 87    
Minimum Humidity 50    
Precipitation  
Precipitation 0.21 in - - ()
Sea Level Pressure  
Sea Level Pressure 30.05 in    
Wind  
Wind Speed 7 mph (NW)    
Max Wind Speed 18 mph    
Max Gust Speed 18 mph    
Visibility 10 miles    
Events Rain    
Averages and records for this station are not official NWS values.
T = Trace of Precipitation, MM = Missing Value Source: NWS Daily Summary

Daily Weather History Graph

Daily Weather History Graph

Search for Another Location

Airport or City:

Trip Planner

Search our weather history database for the weather conditions in past years. The results will help you decide how hot, cold, wet, or windy it might be!

Date:

Astronomy

Oct. 05, 2012 Rise Set
Actual Time 7:36 AM EDT 7:11 PM EDT
Civil Twilight 7:09 AM EDT 7:38 PM EDT
Nautical Twilight 6:38 AM EDT 8:09 PM EDT
Astronomical Twilight 6:07 AM EDT 8:40 PM EDT
Moon 10:34 PM EDT (10/5) 12:43 PM EDT (10/5)
Length of Visible Light 12h 28m
Length of Day
11h 34m
Waning Gibbous, 74% of the Moon is Illuminated
Oct 5
Waning Gibbous
Oct 8
Last Quarter
Oct 15
New
Oct 21
First Quarter
Oct 29
Full

Hourly Weather History & Observations

Time (EDT) Temp. Windchill Dew Point Humidity Pressure Visibility Wind Dir Wind Speed Gust Speed Precip Events Conditions
12:55 AM 59.7 °F - 50.4 °F 71% 30.13 in 10.0 mi SSW 4.6 mph - N/A   Clear
1:55 AM 59.0 °F - 50.4 °F 73% 30.13 in 10.0 mi SSW 5.8 mph - N/A   Partly Cloudy
2:55 AM 59.7 °F - 50.7 °F 72% 30.11 in 10.0 mi South 6.9 mph - N/A   Clear
3:55 AM 58.6 °F - 50.7 °F 75% 30.11 in 10.0 mi SSW 3.5 mph - N/A   Clear
4:55 AM 57.9 °F - 50.5 °F 76% 30.11 in 10.0 mi SW 3.5 mph - N/A   Partly Cloudy
5:55 AM 56.7 °F - 50.7 °F 80% 30.12 in 10.0 mi Calm Calm - N/A   Partly Cloudy
6:55 AM 57.2 °F - 50.9 °F 79% 30.12 in 10.0 mi Calm Calm - N/A   Partly Cloudy
7:42 AM 59.0 °F - 51.8 °F 77% 30.14 in 10.0 mi WSW 3.5 mph - N/A   Mostly Cloudy
7:45 AM 59.0 °F - 51.8 °F 77% 30.14 in 10.0 mi WSW 3.5 mph - N/A   Mostly Cloudy
7:55 AM 58.5 °F - 52.2 °F 80% 30.14 in 10.0 mi WSW 4.6 mph - N/A   Mostly Cloudy
8:55 AM 59.7 °F - 51.8 °F 75% 30.12 in 10.0 mi NW 4.6 mph - N/A   Scattered Clouds
9:55 AM 61.2 °F - 50.2 °F 67% 30.11 in 10.0 mi Calm Calm - N/A   Scattered Clouds
10:55 AM 64.0 °F - 50.5 °F 61% 30.11 in 10.0 mi NNW 4.6 mph - N/A   Mostly Cloudy
11:55 AM 65.7 °F - 50.2 °F 57% 30.11 in 10.0 mi SW 4.6 mph - N/A   Mostly Cloudy
12:55 PM 66.2 °F - 50.4 °F 57% 30.11 in 10.0 mi West 4.6 mph - N/A   Overcast
1:55 PM 68.4 °F - 51.6 °F 55% 30.07 in 10.0 mi SW 5.8 mph - N/A   Overcast
2:00 PM 69.8 °F - 51.8 °F 53% 30.06 in 10.0 mi SW 10.4 mph - N/A   Overcast
2:55 PM 70.3 °F - 50.7 °F 50% 30.03 in 10.0 mi SSW 9.2 mph - N/A   Overcast
3:55 PM 70.2 °F - 51.8 °F 52% 30.00 in 10.0 mi Variable 5.8 mph - N/A   Mostly Cloudy
4:48 PM 62.6 °F - 48.2 °F 59% 30.01 in 10.0 mi NW 18.4 mph - N/A   Mostly Cloudy
4:55 PM 60.4 °F - 48.4 °F 64% 30.01 in 10.0 mi NNW 17.3 mph - N/A   Mostly Cloudy
5:25 PM 55.4 °F - 46.4 °F 72% 30.03 in 10.0 mi NNW 11.5 mph - N/A   Overcast
5:31 PM 55.4 °F - 46.4 °F 72% 30.03 in 10.0 mi NW 12.7 mph - N/A Rain Light Rain
5:55 PM 53.6 °F - 47.5 °F 80% 30.02 in 10.0 mi North 9.2 mph - 0.00 in Rain Light Rain
6:01 PM 53.6 °F - 46.4 °F 77% 30.02 in 10.0 mi NNW 9.2 mph - N/A Rain Light Rain
6:05 PM 53.6 °F - 48.2 °F 82% 30.02 in 10.0 mi North 8.1 mph - N/A   Mostly Cloudy
6:09 PM 53.6 °F - 48.2 °F 82% 30.02 in 10.0 mi North 10.4 mph - N/A   Mostly Cloudy
6:15 PM 53.6 °F - 46.4 °F 77% 30.01 in 10.0 mi North 10.4 mph - N/A Rain Light Rain
6:27 PM 51.8 °F - 46.4 °F 82% 30.03 in 10.0 mi NW 11.5 mph - N/A Rain Light Rain
6:39 PM 51.8 °F - 46.4 °F 82% 30.00 in 10.0 mi North 6.9 mph - N/A Rain Light Rain
6:52 PM 51.8 °F - 46.4 °F 82% 30.00 in 10.0 mi NNW 9.2 mph - N/A Rain Light Rain
6:56 PM 51.4 °F - 46.4 °F 83% 30.00 in 10.0 mi NW 10.4 mph - 0.01 in Rain Light Rain
7:03 PM 51.8 °F - 46.4 °F 82% 30.01 in 10.0 mi NNW 10.4 mph - N/A   Mostly Cloudy
7:09 PM 51.8 °F - 46.4 °F 82% 30.01 in 10.0 mi NW 8.1 mph - N/A   Overcast
7:32 PM 50.0 °F - 44.6 °F 82% 30.02 in 10.0 mi NNW 13.8 mph 18.4 mph N/A Rain Light Rain
7:39 PM 50.0 °F - 44.6 °F 82% 30.02 in 10.0 mi NNW 13.8 mph - N/A Rain Light Rain
7:44 PM 50.0 °F - 44.6 °F 82% 30.04 in 10.0 mi NNW 12.7 mph - N/A Rain Light Rain
7:55 PM 50.0 °F - 44.4 °F 81% 30.04 in 10.0 mi NW 12.7 mph - 0.00 in Rain Light Rain
8:06 PM 50.0 °F - 44.6 °F 82% 30.04 in 10.0 mi NNW 12.7 mph - N/A Rain Light Rain
8:15 PM 48.2 °F - 42.8 °F 82% 30.03 in 10.0 mi NW 12.7 mph - N/A Rain Light Rain
8:35 PM 48.2 °F - 41.0 °F 76% 30.04 in 10.0 mi NNW 12.7 mph - N/A Rain Light Rain
8:42 PM 48.2 °F - 41.0 °F 76% 30.05 in 10.0 mi NNW 10.4 mph - N/A Rain Light Rain
8:55 PM 47.5 °F - 41.7 °F 80% 30.05 in 7.0 mi NW 11.5 mph - 0.02 in Rain Rain
9:04 PM 46.4 °F 41.5 °F 41.0 °F 81% 30.04 in 7.0 mi NNW 10.4 mph - N/A Rain Rain
9:14 PM 46.4 °F 41.1 °F 41.0 °F 81% 30.05 in 7.0 mi NNW 11.5 mph - N/A Rain Light Rain
9:26 PM 46.4 °F 40.7 °F 42.8 °F 87% 30.04 in 7.0 mi NNW 12.7 mph - N/A Rain Rain
9:37 PM 46.4 °F 39.8 °F 41.0 °F 81% 30.04 in 10.0 mi NNW 16.1 mph - N/A Rain Light Rain
9:45 PM 46.4 °F 39.8 °F 41.0 °F 81% 30.03 in 10.0 mi NNW 16.1 mph - N/A Rain Light Rain
9:55 PM 45.7 °F 40.2 °F 40.6 °F 83% 30.04 in 10.0 mi NNW 11.5 mph - 0.07 in   Light Drizzle
9:57 PM 46.4 °F 41.5 °F 41.0 °F 81% 30.04 in 10.0 mi NNW 10.4 mph - N/A   Light Drizzle
10:13 PM 46.4 °F 40.4 °F 41.0 °F 81% 30.02 in 10.0 mi North 13.8 mph - N/A Rain Light Rain
10:38 PM 44.6 °F 39.2 °F 41.0 °F 87% 30.03 in 10.0 mi NNW 10.4 mph - N/A Rain Light Rain
10:55 PM 45.1 °F 41.4 °F 40.5 °F 84% 30.02 in 6.0 mi NW 6.9 mph - 0.04 in Rain Rain
11:41 PM 44.6 °F 38.4 °F 41.0 °F 87% 30.02 in 7.0 mi NW 12.7 mph - N/A Rain Light Rain
11:55 PM 44.2 °F 37.3 °F 39.4 °F 83% 30.04 in 8.0 mi NW 15.0 mph - 0.07 in Rain Light Rain